Tracking 17856 objects as of 27-September-2016
HD Live streaming from Space Station
objects crossing your sky now

NAVSTAR 28 (USA 85)

Track NAVSTAR 28 (USA 85) now!
NAVSTAR 28 (USA 85) is classified as:


NORAD ID: 22231
Int'l Code: 1992-079A
Perigee: 19,960.3 km
Apogee: 20,417.0 km
Inclination: 55.4 °
Period: 717.9 minutes
Semi major axis: 26559 km
RCS: 3.981 m2 (large)
Launch date: November 22, 1992
Source: United States (US)
Launch site: AIR FORCE EASTERN TEST RANGE (AFETR)
PRN:
Your satellite tracking list
Your tracking list is empty





NASA's NSSDC Master Catalog

Two Line Element Set (TLE):
1 22231U 92079A   16270.44277720 -.00000015  00000-0  00000+0 0  9992
2 22231  55.3677 237.4217 0085988 300.9080 166.4580  2.00571563174707
Source of the keplerian elements: AFSPC

N2YO: 795